Location: Dürabuch
(48.2640°N, 11.2185°E)
Time: 02:33:37
(UTC+00:00)

BREEZE-M DEB (TANK) - Pass Details

Date: 23 May 2024
Orbit: 291 x 16914 km, 49.4° (Epoch: 13 June)

Event Time Altitude Azimuth Distance (km) Brightness Sun altitude
Exits shadow 00:09:29 46° 222° (SW) 837 3.3 -19.9°
Maximum altitude 00:09:55 49° 200° (SSW) 866 3.3 -19.9°
Drops below altitude 10° 00:17:47 10° 128° (SE) 4,217 7.1 -19.5°
Sets 00:24:31 0° 125° (SE) 7,109 8.3 -19.2°
